Вернуться в каталог

YAOGAN 31 ADAPTER

АктивенLEO
NORAD 47855·DEBRIS·🇨🇳 China
Это название спутника еще не подтверждено официальными источниками.

Запущен Mar 13, 2021 с Jiuquan Satellite Launch Center

Loading…

Ближайшие Пролёты (ближайшие 24 часа)

TLE

СвежийSource: Space-Track

Эпоха: Sep 14, 2026, 16:18 UTC

1 47855U 21020B   26257.67958190 -.00000302  00000-0 -33167-3 0  9991
2 47855  63.4086  40.2990 0178068   1.4127 358.7366 13.44258730270214

Отслеживайте YAOGAN 31 ADAPTER в реальном времени с AllMySat

Download on the App Store